TURKSAT 4A

Last updated on Mon Jul 07 2025 00:02:44 GMT+0000 (Coordinated Universal Time)

1 39522U 14007A 25187.57246045 .00000163 00000+0 00000+0 0 9997 2 39522 0.0803 282.6311 0000719 19.6939 230.5552 1.00269806 41505
UTC large
Height (km)
Speed (km/s)
/
Latitude / Longitude
Inclination (degrees)
Orbital Period (minutes)
Azimuth
Elevation
Range (km)
Doppler Factor

Next 0 passes for location: London (51.5072 / 0.1276)

Sorry there are no passes over London.